User: anonymous   Login
Location: Zagreb
(45.8000°N, 16.0000°E)
Time: 19:25:22
(UTC+01:00)
Language:

A-11 Canister half - Orbit

View from above orbital plane
View from above orbital plane
View from above satellite
View from above satellite

Ground track
Ground track

The orbit data is extracted from the following two-line orbital elements,

1    53U 60009E   22332.12466726 -.00000001  00000-0  82243-3 0  9993
2    53  47.2795  22.9793 0100704 202.6036 157.0299 12.17285331777420
Epoch (UTC): 28 November 2022 02:59:31
Eccentricity: 0.0100704
inclination: 47.2795°
perigee height: 1524 km
apogee height: 1685 km
right ascension of ascending node: 22.9793°
argument of perigee: 202.6036°
revolutions per day: 12.17285331
mean anomaly at epoch: 157.0299°
orbit number at epoch: 77742

The dashed part of the orbit path shows where the satellite is in the earth's shadow,  

DLR